Lid_Strength_Index
1 1 1 2 2 3 2 2 2 3 3 3 3 3 3 3 3 4 3 3 3 3 3 3 3 3 7 12 10 5 -0 1 4 5 8 10 12 14 15 15 14 15 14 13 13 13 14
1 1 2 2 2 3 2 2 3 3 3 3 3 3 3 3 3 3 3 3 4 4 4 4 3 3 9 12 8 3 4 4 5 7 9 11 12 12 14 15 16 14 14 13 13 13 15
1 2 2 2 2 2 2 2 2 2 3 3 3 3 3 3 3 3 3 3 3 4 4 3 3 4 11 12 8 4 5 8 7 7 9 9 10 11 13 14 14 13 15 14 15 15 14
2 2 2 2 2 2 2 2 2 2 2 3 3 3 3 4 4 3 3 4 4 4 4 4 3 7 13 9 8 7 6 7 6 7 7 7 10 12 13 13 13 15 16 19 14 14 13
2 2 2 1 1 1 2 2 2 2 3 3 3 3 4 4 4 4 4 4 4 4 4 3 7 9 11 5 9 8 6 7 9 9 9 7 10 13 12 15 16 16 18 18 16 13 13
1 1 1 1 1 2 2 2 3 3 3 3 4 4 4 4 4 4 5 5 3 4 4 4 6 12 9 10 8 7 8 6 9 10 10 10 13 14 16 16 20 17 17 16 15 13 12
2 1 1 1 1 2 2 2 3 3 3 3 4 4 4 4 4 4 8 12 13 13 12 13 12 11 10 8 8 8 7 8 9 10 14 13 15 16 15 14 14 14 15 15 13 11 12
2 1 1 1 1 2 2 3 3 3 4 4 4 4 4 4 4 4 9 12 12 12 13 11 10 10 8 9 10 8 7 11 11 13 13 14 16 13 12 12 13 13 14 14 11 10 12
2 2 2 2 2 2 3 3 3 4 4 4 4 4 4 4 5 8 10 11 10 10 13 10 9 10 10 10 10 10 8 10 12 14 14 15 13 11 12 13 12 13 14 13 13 11 11
2 3 2 3 3 3 3 3 3 4 4 4 4 4 5 5 9 10 11 9 9 9 16 14 12 10 9 9 11 7 7 10 13 14 14 15 12 10 11 12 12 14 11 12 12 14 17
2 3 3 3 3 3 3 3 4 4 4 4 4 4 5 5 10 11 9 8 9 10 20 12 12 8 9 10 9 8 6 9 12 12 13 13 11 11 12 12 11 13 11 12 13 14 16
3 3 3 3 3 3 3 4 4 4 4 4 4 4 5 7 10 8 7 9 9 15 20 14 11 11 11 10 10 8 9 7 8 10 10 10 9 10 11 10 11 10 13 14 15 17 20
4 3 3 3 3 3 4 4 4 4 5 5 4 5 6 7 9 8 8 9 15 19 13 14 13 12 12 12 11 10 11 11 13 15 15 12 11 10 9 12 11 13 17 21 21 21 20
4 4 4 4 4 4 4 5 5 5 4 5 5 6 7 6 7 8 11 14 19 15 15 12 12 12 13 12 12 11 13 14 10 11 15 17 17 12 10 12 14 14 16 22 23 22 20
4 4 4 4 5 5 5 5 5 5 5 5 6 9 8 8 8 10 11 17 17 15 12 13 12 14 14 12 12 12 14 14 10 10 15 16 15 10 10 10 12 15 17 15 18 17 20
5 5 5 5 5 6 6 5 5 4 4 5 11 10 9 7 9 10 13 14 14 11 10 11 15 13 16 14 14 14 14 11 11 9 10 11 16 11 11 10 11 13 13 19 19 22 22
5 5 5 6 6 6 6 5 5 4 5 6 11 11 8 6 8 11 16 15 12 9 9 11 13 14 13 14 13 14 13 11 9 9 8 10 13 14 12 14 15 15 16 15 14 16 21
6 6 6 6 6 6 6 5 5 4 5 9 12 13 7 8 12 15 15 12 9 9 9 10 11 12 13 13 14 13 13 12 8 9 11 10 12 16 14 11 11 12 14 13 18 18 17
6 6 6 6 6 6 6 5 5 5 5 10 12 12 7 7 14 15 13 11 10 10 11 11 12 11 12 14 17 13 11 9 9 9 11 10 14 17 16 15 12 13 12 11 13 14 17
6 6 6 6 6 6 6 5 5 4 4 10 10 12 10 10 12 13 14 13 12 9 11 11 12 12 13 14 13 14 12 10 9 9 6 7 13 15 18 15 13 14 13 12 13 17 17
6 6 6 6 6 6 6 5 4 4 3 8 10 12 11 14 12 13 14 13 13 13 11 11 13 13 14 19 15 14 12 11 10 8 10 10 15 13 13 12 12 13 13 13 14 14 17
6 6 6 6 6 6 5 4 3 3 4 7 10 11 11 12 12 13 13 14 13 12 12 13 14 12 13 16 14 14 12 12 14 12 12 9 14 13 15 12 13 14 13 13 14 14 15
6 6 5 5 5 5 4 3 3 3 4 8 7 9 11 12 13 14 13 13 11 10 10 11 12 13 14 12 10 9 9 9 10 13 11 11 13 15 17 14 15 18 18 16 15 14 14
6 5 5 5 5 5 5 4 3 3 3 7 8 9 12 15 13 12 11 10 11 11 11 10 10 14 11 8 9 10 11 10 10 10 9 12 14 14 16 17 23 16 13 13 14 14 13
5 5 5 6 5 5 5 5 4 4 3 6 7 8 10 14 12 11 11 11 10 10 11 11 11 10 9 11 14 15 14 13 12 11 12 9 13 15 17 19 17 15 14 15 15 16 13
5 5 6 6 6 6 5 5 5 5 4 5 6 7 9 11 13 10 11 11 13 14 13 12 9 9 11 13 15 17 17 15 15 14 10 10 11 14 15 18 22 17 12 11 12 20 13
6 6 6 6 6 6 5 5 5 5 4 5 7 7 9 11 10 10 11 12 11 10 12 13 11 11 12 17 18 18 16 14 16 16 19 18 19 17 17 18 16 13 11 11 20 18 13
6 6 6 6 6 6 5 5 5 5 5 5 6 6 7 10 9 9 8 10 9 11 12 11 11 14 15 17 17 16 17 16 15 15 20 17 15 19 17 20 21 11 12 16 13 12 13
6 6 6 6 6 6 5 5 5 4 4 4 7 6 6 9 10 9 8 7 7 8 9 9 12 14 13 15 14 13 14 13 14 17 12 15 12 15 15 16 12 11 12 10 10 12 13